ELY541 LLBG-LGAV

Flight info

Callsign ELY541
Flight time 1h 36m
Altitude 36000
Route SUVAS N128 OTHON DCT USINI UL995 VARIX
Aircraft B789/H-SACDE1E2E3GHIJ1J3J4J5LM1OP2RVWXY/LB2D1

Departure

Time 2026-05-07 10:05
Airport Ben Gurion International Airport (LLBG)

Arrival

Time 2026-05-07 11:41
Airport Athens Eleftherios Venizelos International Airport (LGAV)
Time Latitude Longitude Altitude Speed Heading
2026-05-07 09:50 32.00370 34.87649 125 ft 0 kts 272°
2026-05-07 09:56 32.00370 34.87653 125 ft 1 kts 272°
2026-05-07 09:56 32.00369 34.87675 124 ft 3 kts 272°
2026-05-07 09:56 32.00368 34.87696 121 ft 2 kts 272°
2026-05-07 09:56 32.00367 34.87715 121 ft 3 kts 282°
2026-05-07 09:57 32.00362 34.87734 120 ft 3 kts 308°
2026-05-07 09:57 32.00353 34.87744 120 ft 3 kts 346°
2026-05-07 09:57 32.00340 34.87744 120 ft 3 kts 22°
2026-05-07 09:57 32.00323 34.87734 120 ft 3 kts 32°
2026-05-07 09:58 32.00306 34.87721 120 ft 3 kts 33°
2026-05-07 09:58 32.00298 34.87715 120 ft 0 kts 31°
2026-05-07 10:00 32.00314 34.87725 120 ft 10 kts 28°
2026-05-07 10:00 32.00416 34.87796 122 ft 19 kts 31°
2026-05-07 10:00 32.00527 34.87876 122 ft 17 kts 31°
2026-05-07 10:00 32.00584 34.87916 122 ft 1 kts 31°
2026-05-07 10:01 32.00599 34.87927 121 ft 7 kts 31°
2026-05-07 10:01 32.00693 34.87994 121 ft 20 kts 31°
2026-05-07 10:01 32.00845 34.88104 122 ft 29 kts 31°
2026-05-07 10:01 32.01014 34.88226 121 ft 28 kts 32°
2026-05-07 10:02 32.01193 34.88355 123 ft 31 kts 32°
2026-05-07 10:02 32.01358 34.88518 124 ft 31 kts 48°
2026-05-07 10:02 32.01468 34.88729 122 ft 30 kts 69°
2026-05-07 10:02 32.01515 34.88967 122 ft 30 kts 80°
2026-05-07 10:03 32.01553 34.89209 122 ft 30 kts 79°
2026-05-07 10:03 32.01590 34.89449 120 ft 30 kts 79°
2026-05-07 10:03 32.01624 34.89650 122 ft 16 kts 63°
2026-05-07 10:03 32.01714 34.89727 122 ft 19 kts 28°
2026-05-07 10:04 32.01823 34.89760 119 ft 10 kts 328°
2026-05-07 10:04 32.01838 34.89730 121 ft 6 kts 285°
2026-05-07 10:04 32.01824 34.89601 122 ft 32 kts 260°
2026-05-07 10:04 32.01746 34.89087 121 ft 95 kts 260°
2026-05-07 10:05 32.01591 34.88084 122 ft 152 kts 260°
2026-05-07 10:05 32.01362 34.86696 312 ft 187 kts 257°
2026-05-07 10:05 32.01078 34.85116 907 ft 204 kts 262°
2026-05-07 10:05 32.00823 34.83460 1847 ft 207 kts 264°
2026-05-07 10:06 32.00481 34.81766 2905 ft 218 kts 255°
2026-05-07 10:06 31.99981 34.80030 3831 ft 236 kts 254°
2026-05-07 10:06 31.99602 34.78020 4458 ft 268 kts 260°
2026-05-07 10:06 31.99240 34.75844 5728 ft 270 kts 262°
2026-05-07 10:07 31.99439 34.73663 7022 ft 272 kts 287°
2026-05-07 10:07 31.99952 34.71498 8234 ft 275 kts 284°
2026-05-07 10:07 32.00446 34.69314 9511 ft 277 kts 285°
2026-05-07 10:07 32.00974 34.67102 10528 ft 290 kts 285°
2026-05-07 10:08 32.01553 34.64707 11015 ft 318 kts 285°
2026-05-07 10:08 32.02177 34.62093 11563 ft 340 kts 285°
2026-05-07 10:08 32.02813 34.59405 12751 ft 342 kts 285°
2026-05-07 10:08 32.03451 34.56715 13816 ft 349 kts 285°
2026-05-07 10:09 32.04118 34.53907 14826 ft 353 kts 285°
2026-05-07 10:09 32.04775 34.51139 15825 ft 357 kts 285°
2026-05-07 10:09 32.05446 34.48306 16825 ft 361 kts 285°
2026-05-07 10:09 32.06125 34.45433 17810 ft 365 kts 286°
2026-05-07 10:10 32.06811 34.42530 18715 ft 369 kts 286°
2026-05-07 10:10 32.07503 34.39599 19543 ft 373 kts 286°
2026-05-07 10:10 32.08201 34.36639 20378 ft 376 kts 286°
2026-05-07 10:10 32.08903 34.33655 21167 ft 380 kts 286°
2026-05-07 10:11 32.09614 34.30633 21942 ft 383 kts 286°
2026-05-07 10:11 32.10087 34.28618 22458 ft 386 kts 286°
2026-05-07 10:11 32.10806 34.25556 23227 ft 389 kts 286°
2026-05-07 10:11 32.11767 34.21456 24093 ft 394 kts 285°
2026-05-07 10:12 32.12262 34.19341 24495 ft 396 kts 285°
2026-05-07 10:12 32.12997 34.16200 25066 ft 399 kts 285°
2026-05-07 10:12 32.13978 34.11999 25828 ft 403 kts 285°
2026-05-07 10:12 32.14482 34.09836 26190 ft 405 kts 285°
2026-05-07 10:13 32.15233 34.06615 26731 ft 409 kts 285°
2026-05-07 10:13 32.15988 34.03370 27257 ft 412 kts 285°
2026-05-07 10:13 32.16870 34.00149 27768 ft 415 kts 293°
2026-05-07 10:13 32.18239 33.97137 28265 ft 419 kts 302°
2026-05-07 10:14 32.19926 33.94309 28703 ft 423 kts 303°
2026-05-07 10:14 32.21640 33.91462 29196 ft 426 kts 303°
2026-05-07 10:14 32.23344 33.88646 29665 ft 429 kts 303°
2026-05-07 10:14 32.25109 33.85720 30134 ft 432 kts 303°
2026-05-07 10:15 32.26853 33.82815 30528 ft 435 kts 303°
2026-05-07 10:15 32.28607 33.79896 30912 ft 437 kts 303°
2026-05-07 10:15 32.30350 33.76998 31301 ft 439 kts 303°
2026-05-07 10:15 32.32117 33.74057 31664 ft 442 kts 303°
2026-05-07 10:16 32.33915 33.71058 32020 ft 444 kts 303°
2026-05-07 10:16 32.35704 33.68072 32378 ft 447 kts 303°
2026-05-07 10:16 32.37507 33.65063 32722 ft 449 kts 303°
2026-05-07 10:16 32.39310 33.62051 33160 ft 448 kts 303°
2026-05-07 10:17 32.41109 33.59043 33665 ft 446 kts 303°
2026-05-07 10:17 32.42897 33.56050 34144 ft 445 kts 303°
2026-05-07 10:17 32.44678 33.53067 34562 ft 444 kts 303°
2026-05-07 10:17 32.46463 33.50075 34922 ft 444 kts 303°
2026-05-07 10:18 32.48239 33.47096 35285 ft 443 kts 303°
2026-05-07 10:18 32.50026 33.44096 35415 ft 449 kts 303°
2026-05-07 10:18 32.51811 33.41093 35539 ft 454 kts 303°
2026-05-07 10:18 32.53644 33.38014 35902 ft 453 kts 303°
2026-05-07 10:19 32.55456 33.34966 36239 ft 453 kts 303°
2026-05-07 10:19 32.57265 33.31919 36563 ft 453 kts 303°
2026-05-07 10:19 32.59083 33.28853 36910 ft 452 kts 303°
2026-05-07 10:19 32.60892 33.25802 37239 ft 452 kts 303°
2026-05-07 10:20 32.62701 33.22748 37563 ft 452 kts 303°
2026-05-07 10:20 32.64504 33.19701 37875 ft 452 kts 303°
2026-05-07 10:20 32.66308 33.16649 38126 ft 453 kts 303°
2026-05-07 10:21 32.69967 33.10451 38143 ft 463 kts 303°
2026-05-07 10:21 32.73709 33.04107 38164 ft 474 kts 303°
2026-05-07 10:22 32.77524 32.97625 38151 ft 484 kts 303°
2026-05-07 10:22 32.81394 32.91041 38158 ft 485 kts 303°
2026-05-07 10:23 32.85251 32.84463 38155 ft 484 kts 303°
2026-05-07 10:23 32.89075 32.77933 38158 ft 483 kts 303°
2026-05-07 10:24 32.92916 32.71361 38162 ft 483 kts 303°
2026-05-07 10:24 32.96746 32.64796 38161 ft 482 kts 303°
2026-05-07 10:25 33.00573 32.58225 38163 ft 482 kts 303°
2026-05-07 10:25 33.04387 32.51665 38159 ft 481 kts 303°
2026-05-07 10:26 33.08174 32.45141 38165 ft 481 kts 303°
2026-05-07 10:26 33.11974 32.38581 38161 ft 480 kts 303°
2026-05-07 10:27 33.15769 32.32020 38161 ft 480 kts 303°
2026-05-07 10:27 33.19551 32.25468 38168 ft 479 kts 303°
2026-05-07 10:28 33.23331 32.18908 38171 ft 479 kts 303°
2026-05-07 10:28 33.27068 32.12412 38168 ft 479 kts 303°
2026-05-07 10:29 33.30837 32.05849 38173 ft 478 kts 303°
2026-05-07 10:29 33.34612 31.99263 38172 ft 478 kts 303°
2026-05-07 10:30 33.40249 31.89407 38175 ft 478 kts 303°
2026-05-07 10:30 33.43991 31.82850 38169 ft 477 kts 303°
2026-05-07 10:31 33.47688 31.76361 38171 ft 477 kts 303°
2026-05-07 10:31 33.51395 31.69842 38169 ft 477 kts 303°
2026-05-07 10:32 33.55176 31.63182 38175 ft 477 kts 303°
2026-05-07 10:32 33.58885 31.56637 38170 ft 477 kts 303°
2026-05-07 10:33 33.62639 31.50000 38173 ft 476 kts 303°
2026-05-07 10:33 33.66304 31.43508 38171 ft 476 kts 303°
2026-05-07 10:34 33.70015 31.36924 38179 ft 476 kts 303°
2026-05-07 10:34 33.73739 31.30303 38177 ft 475 kts 303°
2026-05-07 10:35 33.77405 31.23777 38181 ft 475 kts 303°
2026-05-07 10:35 33.81156 31.17085 38173 ft 475 kts 303°
2026-05-07 10:36 33.84837 31.10505 38180 ft 474 kts 303°
2026-05-07 10:36 33.88519 31.03914 38177 ft 474 kts 303°
2026-05-07 10:37 33.92161 30.97381 37976 ft 475 kts 303°
2026-05-07 10:37 33.93987 30.94101 37713 ft 476 kts 303°
2026-05-07 10:37 33.95817 30.90811 37448 ft 476 kts 303°
2026-05-07 10:38 33.97683 30.87454 37187 ft 476 kts 303°
2026-05-07 10:38 33.99523 30.84138 36945 ft 477 kts 303°
2026-05-07 10:38 34.01409 30.80738 36683 ft 477 kts 303°
2026-05-07 10:38 34.03248 30.77419 36439 ft 477 kts 303°
2026-05-07 10:39 34.05095 30.74083 36188 ft 477 kts 303°
2026-05-07 10:39 34.06908 30.70805 36175 ft 476 kts 303°
2026-05-07 10:39 34.10548 30.64214 36177 ft 475 kts 303°
2026-05-07 10:40 34.14247 30.57505 36173 ft 476 kts 303°
2026-05-07 10:40 34.17895 30.50876 36178 ft 475 kts 303°
2026-05-07 10:41 34.21519 30.44279 36179 ft 475 kts 303°
2026-05-07 10:41 34.25219 30.37530 36172 ft 475 kts 303°
2026-05-07 10:42 34.28856 30.30883 36167 ft 475 kts 303°
2026-05-07 10:42 34.32472 30.24264 36169 ft 475 kts 303°
2026-05-07 10:43 34.36128 30.17558 36171 ft 475 kts 303°
2026-05-07 10:43 34.39763 30.10879 36176 ft 475 kts 303°
2026-05-07 10:44 34.43347 30.04280 36175 ft 475 kts 303°
2026-05-07 10:44 34.47296 29.97987 36173 ft 476 kts 313°
2026-05-07 10:45 34.51987 29.92165 36151 ft 476 kts 313°
2026-05-07 10:45 34.56588 29.86453 36156 ft 475 kts 313°
2026-05-07 10:46 34.61221 29.80688 36162 ft 475 kts 313°
2026-05-07 10:46 34.65828 29.74946 36165 ft 475 kts 313°
2026-05-07 10:47 34.70389 29.69252 36168 ft 475 kts 313°
2026-05-07 10:47 34.75000 29.63487 36167 ft 474 kts 313°
2026-05-07 10:48 34.79609 29.57713 36168 ft 474 kts 313°
2026-05-07 10:48 34.84230 29.51914 36169 ft 473 kts 313°
2026-05-07 10:49 34.88782 29.46192 36165 ft 473 kts 313°
2026-05-07 10:49 34.93331 29.40465 36166 ft 473 kts 313°
2026-05-07 10:50 34.97875 29.34734 36166 ft 473 kts 313°
2026-05-07 10:50 35.02425 29.28986 36161 ft 472 kts 313°
2026-05-07 10:51 35.07005 29.23189 36167 ft 472 kts 313°
2026-05-07 10:51 35.11593 29.17373 36166 ft 472 kts 313°
2026-05-07 10:52 35.16126 29.11617 36167 ft 472 kts 313°
2026-05-07 10:52 35.20677 29.05827 36168 ft 471 kts 313°
2026-05-07 10:53 35.25224 29.00032 36157 ft 471 kts 313°
2026-05-07 10:53 35.29721 28.94293 36154 ft 471 kts 313°
2026-05-07 10:54 35.34279 28.88465 36159 ft 471 kts 313°
2026-05-07 10:54 35.38806 28.82665 36160 ft 470 kts 313°
2026-05-07 10:55 35.43268 28.76939 36164 ft 470 kts 313°
2026-05-07 10:55 35.47805 28.71108 36164 ft 470 kts 313°
2026-05-07 10:56 35.52348 28.65258 36159 ft 470 kts 313°
2026-05-07 10:56 35.56788 28.59532 36162 ft 469 kts 313°
2026-05-07 10:57 35.60607 28.54597 36171 ft 469 kts 313°
2026-05-07 10:57 35.65052 28.48846 36162 ft 469 kts 313°
2026-05-07 10:58 35.69546 28.43020 36169 ft 469 kts 313°
2026-05-07 10:58 35.74750 28.36262 36158 ft 468 kts 313°
2026-05-07 10:59 35.78534 28.31339 36164 ft 468 kts 313°
2026-05-07 10:59 35.82942 28.25595 36166 ft 468 kts 313°
2026-05-07 11:00 35.87435 28.19731 36171 ft 467 kts 313°
2026-05-07 11:00 35.91896 28.13897 36163 ft 467 kts 313°
2026-05-07 11:01 35.96313 28.08110 36167 ft 466 kts 313°
2026-05-07 11:01 36.00731 28.02312 36167 ft 466 kts 313°
2026-05-07 11:02 36.05209 27.96427 36175 ft 466 kts 313°
2026-05-07 11:02 36.09618 27.90620 36163 ft 466 kts 313°
2026-05-07 11:03 36.14014 27.84821 36165 ft 466 kts 313°
2026-05-07 11:03 36.18464 27.78941 36160 ft 465 kts 313°
2026-05-07 11:04 36.22862 27.73117 36157 ft 465 kts 313°
2026-05-07 11:04 36.27274 27.67266 36165 ft 465 kts 313°
2026-05-07 11:05 36.31728 27.61349 36156 ft 465 kts 313°
2026-05-07 11:05 36.36101 27.55528 36154 ft 464 kts 313°
2026-05-07 11:06 36.40548 27.49599 36156 ft 464 kts 313°
2026-05-07 11:06 36.44924 27.43754 36158 ft 464 kts 313°
2026-05-07 11:07 36.49317 27.37875 36155 ft 463 kts 313°
2026-05-07 11:07 36.53678 27.32029 36153 ft 464 kts 313°
2026-05-07 11:08 36.58078 27.26121 36151 ft 463 kts 313°
2026-05-07 11:08 36.62446 27.20244 36157 ft 463 kts 313°
2026-05-07 11:09 36.66704 27.14227 36172 ft 463 kts 306°
2026-05-07 11:09 36.69715 27.07315 36173 ft 466 kts 295°
2026-05-07 11:10 36.72331 26.99874 36151 ft 467 kts 296°
2026-05-07 11:10 36.74897 26.92424 36151 ft 467 kts 295°
2026-05-07 11:11 36.77469 26.85009 36148 ft 467 kts 295°
2026-05-07 11:11 36.80011 26.77630 36162 ft 467 kts 295°
2026-05-07 11:12 36.82641 26.69992 36157 ft 467 kts 295°
2026-05-07 11:12 36.85201 26.62540 36160 ft 468 kts 295°
2026-05-07 11:13 36.87762 26.55073 36154 ft 468 kts 295°
2026-05-07 11:13 36.90303 26.47637 36157 ft 468 kts 295°
2026-05-07 11:14 36.92848 26.40148 36157 ft 468 kts 295°
2026-05-07 11:14 36.95391 26.32657 36154 ft 468 kts 295°
2026-05-07 11:15 36.97928 26.25160 36156 ft 468 kts 294°
2026-05-07 11:15 37.00477 26.17655 36156 ft 468 kts 295°
2026-05-07 11:16 37.03020 26.10161 36156 ft 468 kts 294°
2026-05-07 11:16 37.05560 26.02647 36154 ft 469 kts 294°
2026-05-07 11:17 37.08096 25.95132 36153 ft 469 kts 294°
2026-05-07 11:17 37.10628 25.87606 36154 ft 469 kts 294°
2026-05-07 11:18 37.13126 25.80158 36145 ft 447 kts 294°
2026-05-07 11:18 37.14290 25.76680 36140 ft 430 kts 294°
2026-05-07 11:18 37.15431 25.73273 36138 ft 418 kts 294°
2026-05-07 11:19 37.17678 25.66555 36055 ft 415 kts 294°
2026-05-07 11:19 37.18793 25.63205 35233 ft 418 kts 294°
2026-05-07 11:19 37.19913 25.59844 34663 ft 416 kts 294°
2026-05-07 11:20 37.21025 25.56502 34105 ft 414 kts 294°
2026-05-07 11:20 37.22130 25.53177 33528 ft 411 kts 294°
2026-05-07 11:20 37.23222 25.49884 32983 ft 407 kts 294°
2026-05-07 11:20 37.24279 25.46607 32453 ft 404 kts 293°
2026-05-07 11:21 37.25316 25.43331 31914 ft 401 kts 293°
2026-05-07 11:21 37.26353 25.40093 31413 ft 399 kts 294°
2026-05-07 11:21 37.27393 25.36874 30884 ft 396 kts 293°
2026-05-07 11:21 37.28297 25.33626 30378 ft 393 kts 290°
2026-05-07 11:22 37.29155 25.30428 29825 ft 389 kts 291°
2026-05-07 11:22 37.30021 25.27226 29330 ft 384 kts 291°
2026-05-07 11:22 37.30872 25.24064 28830 ft 381 kts 290°
2026-05-07 11:22 37.31717 25.20909 28338 ft 380 kts 290°
2026-05-07 11:23 37.32558 25.17765 27846 ft 380 kts 290°
2026-05-07 11:23 37.33401 25.14619 27356 ft 378 kts 290°
2026-05-07 11:23 37.34231 25.11512 26876 ft 373 kts 290°
2026-05-07 11:23 37.35056 25.08427 26401 ft 369 kts 291°
2026-05-07 11:24 37.36132 25.05525 25946 ft 365 kts 302°
2026-05-07 11:24 37.37633 25.02954 25453 ft 367 kts 313°
2026-05-07 11:24 37.39531 25.00797 24901 ft 368 kts 321°
2026-05-07 11:24 37.41636 24.98960 24472 ft 380 kts 322°
2026-05-07 11:25 37.43839 24.97083 23968 ft 384 kts 323°
2026-05-07 11:25 37.46056 24.95222 23410 ft 381 kts 323°
2026-05-07 11:25 37.48241 24.93373 22917 ft 375 kts 323°
2026-05-07 11:25 37.50386 24.91541 22439 ft 370 kts 323°
2026-05-07 11:26 37.52508 24.89731 21928 ft 366 kts 323°
2026-05-07 11:26 37.54608 24.87945 21456 ft 363 kts 323°
2026-05-07 11:26 37.56695 24.86169 20974 ft 360 kts 323°
2026-05-07 11:26 37.58763 24.84404 20498 ft 358 kts 323°
2026-05-07 11:27 37.60822 24.82646 20027 ft 356 kts 323°
2026-05-07 11:27 37.62872 24.80896 19555 ft 354 kts 323°
2026-05-07 11:27 37.64907 24.79158 19093 ft 352 kts 323°
2026-05-07 11:27 37.66903 24.77451 18631 ft 350 kts 323°
2026-05-07 11:28 37.68907 24.75736 18128 ft 347 kts 323°
2026-05-07 11:28 37.70895 24.74034 17673 ft 343 kts 323°
2026-05-07 11:28 37.72860 24.72351 17232 ft 340 kts 323°
2026-05-07 11:28 37.74814 24.70675 16757 ft 338 kts 323°
2026-05-07 11:29 37.76753 24.69012 16325 ft 336 kts 323°
2026-05-07 11:29 37.78686 24.67352 15879 ft 334 kts 323°
2026-05-07 11:29 37.80607 24.65702 15445 ft 332 kts 323°
2026-05-07 11:29 37.82507 24.64070 14999 ft 330 kts 324°
2026-05-07 11:30 37.84403 24.62439 14564 ft 328 kts 324°
2026-05-07 11:30 37.86284 24.60820 14137 ft 325 kts 324°
2026-05-07 11:30 37.88149 24.59214 13676 ft 323 kts 324°
2026-05-07 11:30 37.89997 24.57623 13259 ft 321 kts 324°
2026-05-07 11:31 37.91840 24.56033 12842 ft 320 kts 324°
2026-05-07 11:31 37.93659 24.54463 12429 ft 320 kts 324°
2026-05-07 11:31 37.95499 24.52876 12013 ft 319 kts 324°
2026-05-07 11:31 37.97330 24.51294 11596 ft 319 kts 324°
2026-05-07 11:32 38.00356 24.47390 10668 ft 308 kts 300°
2026-05-07 11:32 38.01411 24.45052 10264 ft 302 kts 298°
2026-05-07 11:32 38.02404 24.42722 9857 ft 297 kts 298°
2026-05-07 11:33 38.03395 24.40447 9466 ft 291 kts 298°
2026-05-07 11:33 38.04381 24.38229 9098 ft 285 kts 298°
2026-05-07 11:33 38.05336 24.36070 8722 ft 278 kts 298°
2026-05-07 11:33 38.06265 24.33953 8394 ft 271 kts 298°
2026-05-07 11:34 38.07178 24.31873 8058 ft 267 kts 298°
2026-05-07 11:34 38.08061 24.29861 7713 ft 262 kts 297°
2026-05-07 11:34 38.08953 24.27831 7379 ft 258 kts 297°
2026-05-07 11:34 38.09807 24.25886 7065 ft 254 kts 297°
2026-05-07 11:35 38.10668 24.23919 6727 ft 256 kts 297°
2026-05-07 11:35 38.11536 24.21935 6374 ft 257 kts 297°
2026-05-07 11:35 38.12397 24.19972 6039 ft 252 kts 296°
2026-05-07 11:35 38.13239 24.18036 5728 ft 251 kts 296°
2026-05-07 11:36 38.13795 24.16689 5486 ft 247 kts 290°
2026-05-07 11:36 38.14016 24.14594 5178 ft 236 kts 262°
2026-05-07 11:36 38.13519 24.12670 4863 ft 228 kts 236°
2026-05-07 11:36 38.12428 24.11238 4558 ft 227 kts 214°
2026-05-07 11:37 38.11164 24.10064 4264 ft 222 kts 217°
2026-05-07 11:37 38.09937 24.08889 3958 ft 220 kts 217°
2026-05-07 11:37 38.08724 24.07728 3685 ft 217 kts 216°
2026-05-07 11:37 38.07522 24.06579 3406 ft 215 kts 217°
2026-05-07 11:38 38.06338 24.05448 3151 ft 209 kts 217°
2026-05-07 11:38 38.05173 24.04335 2874 ft 209 kts 217°
2026-05-07 11:38 38.04026 24.03238 2591 ft 210 kts 216°
2026-05-07 11:38 38.02856 24.02119 2327 ft 208 kts 216°
2026-05-07 11:39 38.01717 24.01028 2056 ft 202 kts 216°
2026-05-07 11:39 38.00610 23.99970 1766 ft 195 kts 215°
2026-05-07 11:39 37.99588 23.98990 1524 ft 171 kts 215°
2026-05-07 11:39 37.98703 23.98140 1303 ft 152 kts 214°
2026-05-07 11:40 37.97887 23.97358 1105 ft 144 kts 214°
2026-05-07 11:40 37.97093 23.96601 910 ft 145 kts 214°
2026-05-07 11:40 37.96301 23.95845 736 ft 140 kts 218°
2026-05-07 11:40 37.95529 23.95100 544 ft 139 kts 218°
2026-05-07 11:41 37.94763 23.94368 366 ft 139 kts 217°
2026-05-07 11:41 37.94018 23.93663 293 ft 114 kts 217°
2026-05-07 11:41 37.93612 23.93276 286 ft 49 kts 217°
2026-05-07 11:41 37.93389 23.93143 283 ft 32 kts 188°
2026-05-07 11:42 37.93264 23.93155 283 ft 12 kts 133°
2026-05-07 11:42 37.93239 23.93242 282 ft 11 kts 115°
2026-05-07 11:42 37.93236 23.93327 282 ft 9 kts 61°
2026-05-07 11:42 37.93284 23.93386 283 ft 10 kts 37°
2026-05-07 11:43 37.93344 23.93443 287 ft 11 kts 37°
2026-05-07 11:43 37.93372 23.93520 284 ft 9 kts 103°
2026-05-07 11:43 37.93339 23.93589 284 ft 10 kts 127°
2026-05-07 11:43 37.93294 23.93664 285 ft 11 kts 127°
2026-05-07 11:44 37.93244 23.93748 285 ft 13 kts 127°
2026-05-07 11:44 37.93188 23.93841 285 ft 14 kts 127°
2026-05-07 11:44 37.93128 23.93941 286 ft 15 kts 127°
2026-05-07 11:44 37.93098 23.94023 286 ft 9 kts 84°
2026-05-07 11:45 37.93117 23.94066 287 ft 8 kts 47°
2026-05-07 11:45 37.93183 23.94133 287 ft 12 kts 37°
2026-05-07 11:45 37.93254 23.94201 288 ft 13 kts 37°
2026-05-07 11:45 37.93277 23.94294 291 ft 11 kts 114°
2026-05-07 11:46 37.93232 23.94377 292 ft 12 kts 128°
2026-05-07 11:46 37.93197 23.94434 295 ft 13 kts 127°
2026-05-07 11:46 37.93142 23.94525 295 ft 11 kts 127°
2026-05-07 11:46 37.93140 23.94530 295 ft 12 kts 127°
2026-05-07 11:47 37.93164 23.94491 293 ft 7 kts 117°
2026-05-07 11:47 37.93167 23.94548 293 ft 6 kts 63°
2026-05-07 11:47 37.93196 23.94583 294 ft 6 kts 39°
2026-05-07 11:47 37.93230 23.94611 295 ft 4 kts 11°
2026-05-07 11:48 37.93250 23.94604 295 ft 3 kts 332°
2026-05-07 11:48 37.93262 23.94587 292 ft 3 kts 302°
2026-05-07 11:48 37.93275 23.94560 296 ft 2 kts 301°
2026-05-07 11:48 37.93284 23.94545 295 ft 0 kts 309°